Home   Weather   Ostermundigen   Past weeks

Flag for Switzerland Past Weather in Ostermundigen, Bern, Switzerland — Yesterday and Last 2 Weeks

Now
57 °F

Cool.


Feels Like: 57 °F
Forecast: 49 / 78 °F
Wind: 1 mph from North

Location: Bern / Belp

Current Time: Sep 1, 2016 at 5:46:23 AM

Latest Report: Sep 1, 2016 at 5:20 AM


Visibility: 6 mi

Pressure: 30.21 "Hg (28.28 "Hg at 556m altitude)

Humidity: 100%

Dew Point: 57 °F

Location of OstermundigenLocation

Past Weather in Ostermundigen — Graph

°F

Ostermundigen Temperature Yesterday

Maximum temperature yesterday: 84 °F (at 4:20 PM)
Minimum temperature yesterday: 54 °F (at 4:20 AM)
Average temperature yesterday: 66 °F

High & Low Weather Summary for the Past Weeks

 TemperatureHumidityPressure
High90 °F (Aug 25, 5:20 PM)100% (Aug 17, 8:50 AM)30.39 "Hg (Aug 17, 8:50 AM)
Low45 °F (Aug 22, 6:20 AM)33% (Aug 26, 7:20 PM)29.86 "Hg (Aug 17, 4:20 PM)
Average67 °F80%30.12 "Hg
* Reported Aug 17 4:20 AM — Sep 1 4:50 AM, Ostermundigen, Weather by CustomWeather, © 2016

Note: Actual official high and low records may vary slightly from our data, if they occured in-between our weather recording intervals... More about our weather records

Advertising

Ostermundigen Weather History for the Previous 24 Hours

Scroll right to see more
 ConditionsComfort  
Time TempWeatherWind HumidityBarometerVisibility
4:50 AM
Thu, Sep 1
57 °FCool.6 mph100%30.21 "HgN/A
4:20 AM59 °FPassing clouds.2 mph100%30.21 "HgN/A
3:50 AM59 °FFog.5 mph100%30.21 "Hg3 mi
3:20 AM59 °FPassing clouds.2 mph100%30.21 "HgN/A
2:50 AM59 °FCool.2 mph100%30.21 "HgN/A
2:20 AM59 °FPassing clouds.2 mph100%30.24 "HgN/A
1:50 AM59 °FClear.5 mph100%30.21 "Hg10 mi
1:20 AM61 °FClear.5 mph100%30.21 "HgN/A
12:50 AM61 °FPassing clouds.5 mph100%30.21 "HgN/A
12:20 AM61 °FClear.2 mph100%30.21 "HgN/A
11:50 PM
Wed, Aug 31
63 °FClear.5 mph94%30.21 "HgN/A
11:20 PM63 °FPartly cloudy.6 mph100%30.21 "HgN/A
10:50 PM64 °FOvercast.7 mph94%30.21 "HgN/A
10:20 PM64 °FPartly cloudy.7 mph94%30.21 "HgN/A
9:50 PM64 °FPartly cloudy.6 mph94%30.21 "HgN/A
9:20 PM64 °FMostly cloudy.5 mph94%30.21 "HgN/A
8:50 PM64 °FRain. Broken clouds.8 mph94%30.18 "HgN/A
8:20 PM64 °FThunderstorms. Broken clouds.9 mph94%30.18 "Hg6 mi
7:50 PM68 °FThunderstorms. Broken clouds.13 mph83%30.15 "HgN/A
7:20 PM75 °FThundershowers. Scattered clouds.5 mph61%30.12 "HgN/A
6:50 PM75 °FScattered clouds.6 mph65%30.12 "HgN/A
6:20 PM75 °FScattered clouds.8 mph65%30.12 "HgN/A
5:50 PM77 °FScattered clouds.10 mph65%30.12 "HgN/A
5:20 PM79 °FPassing clouds.8 mph61%30.12 "HgN/A
4:50 PM81 °FScattered clouds.6 mph58%30.12 "HgN/A
4:20 PM84 °FScattered clouds.6 mph45%30.12 "HgN/A
3:50 PM82 °FScattered clouds.3 mph51%30.12 "HgN/A
3:20 PM81 °FScattered clouds.5 mph48%30.15 "HgN/A
2:50 PM81 °FScattered clouds.7 mph54%30.15 "HgN/A
2:20 PM79 °FScattered clouds.2 mph54%30.15 "HgN/A
1:50 PM79 °FPassing clouds.5 mph54%30.15 "HgN/A
1:20 PM77 °FPassing clouds.5 mph57%30.15 "HgN/A
12:50 PM77 °FPassing clouds.6 mph61%30.15 "HgN/A
12:20 PM75 °FPassing clouds.3 mph61%30.18 "HgN/A
11:50 AM73 °FPassing clouds.2 mph69%30.18 "HgN/A
11:20 AM72 °FPassing clouds.2 mph73%30.18 "HgN/A
10:50 AM70 °FPassing clouds.1 mph78%30.18 "HgN/A
10:20 AM66 °FPassing clouds.No wind83%30.18 "HgN/A
9:50 AM64 °FPassing clouds.No wind83%30.18 "HgN/A
9:20 AM64 °FPassing clouds.No wind88%30.18 "HgN/A
8:50 AM63 °FPassing clouds.1 mph88%30.18 "HgN/A
8:20 AM59 °FSunny.1 mph100%30.18 "Hg10 mi
7:50 AM55 °FSunny.No wind100%30.18 "Hg10 mi
7:20 AM55 °FFog.No wind94%30.15 "Hg5 mi
6:50 AM55 °FClear.1 mph100%30.15 "Hg4 mi
6:20 AM54 °FClear.1 mph100%30.15 "Hg4 mi
5:50 AM54 °FClear.1 mph100%30.15 "Hg4 mi
5:20 AM54 °FFog.1 mph100%30.15 "Hg2 mi
Weather by CustomWeather, © 2016

See weather overviewHow to use our weather pages